sat.trackr.live / text

‹ back to catalog

STARLINK-34386

NORAD 66096 · 2025-236L

PAYLOAD ACTIVE UNKNOWN

§ Identity

Operator
Country
US
Launch date
2025-10-19
Launch site
AFWTR
Launch vehicle
Mass (kg)
RCS (m²)

Purposes: comms

External: N2YO · Heavens-Above · Gunter

§ Orbital elements

Epoch: 2026-05-25T03:27:55.844640Z

Period
94.11 min
Inclination
53.1602°
Eccentricity
0.0001186
Mean motion
15.30198600 rev/d
Perigee alt
474.4 km
Apogee alt
476.0 km
Semi-major
6,853.4 km
B*
3.3619e-4
RAAN
108.4967°
Arg perigee
82.7488°
Mean anomaly
277.3647°
Rev number
3,465

§ Raw data

STARLINK-343861 66096U 25236L   26145.14439635  .00009610  00000+0  33619-3 0  99982 66096  53.1602 108.4967 0001186  82.7488 277.3647 15.30198600 34651

JSON: /api/v1/satellites/66096 · /tle

For live sub-satellite position, see the globe view (requires WebGL).

§ Visibility from observer

Set your observer location to see the next 7 days of passes ≥ 10°. The values pass through the URL so the page stays shareable.

No JS? Fill the form by hand. The geolocation button needs JavaScript.